| time (UTC) | temp C | wind direction | speed KPH | gust KPH | rain 1hr cm | rain 24hr cm | rain mn cm | humidity % | barometer mb |
| 20260504160227 | 24 | 208 | 12.9 | 24.1 | 0.00 | 0.00 | 0.00 | 65 | 1015.9 |
| 20260504150239 | 22 | 162 | 9.7 | 20.9 | 0.00 | 0.00 | 0.00 | 69 | 1015.9 |
| 20260504141236 | 20 | 121 | 4.8 | 14.5 | 0.00 | 0.00 | 0.00 | 73 | 1016.0 |
| 20260504140244 | 20 | 187 | 8.0 | 14.5 | 0.00 | 0.00 | 0.00 | 74 | 1016.2 |
| 20260504130234 | 17 | 171 | 1.6 | 9.7 | 0.00 | 0.00 | 0.00 | 78 | 1016.0 |
| 20260504120247 | 15 | 187 | 1.6 | 6.4 | 0.00 | 0.00 | 0.00 | 78 | 1015.6 |
| 20260504110236 | 15 | 135 | 0.0 | 1.6 | 0.00 | 0.00 | 0.00 | 79 | 1015.8 |
| 20260504100228 | 16 | 171 | 1.6 | 4.8 | 0.00 | 0.00 | 0.00 | 77 | 1015.6 |
| 20260504081237 | 16 | 175 | 1.6 | 6.4 | 0.00 | 0.00 | 0.00 | 77 | 1016.4 |
| 20260504080225 | 16 | 171 | 1.6 | 6.4 | 0.00 | 0.00 | 0.00 | 77 | 1016.5 |
| 20260504070233 | 16 | 190 | 1.6 | 6.4 | 0.00 | 0.00 | 0.00 | 78 | 1017.6 |
| 20260504060248 | 17 | 194 | 1.6 | 4.8 | 0.00 | 0.00 | 0.00 | 76 | 1018.2 |
| 20260504050237 | 17 | 186 | 1.6 | 4.8 | 0.00 | 0.00 | 0.00 | 76 | 1018.7 |
| 20260504045228 | 17 | 192 | 1.6 | 4.8 | 0.00 | 0.00 | 0.00 | 75 | 1018.8 |
| 20260504044254 | 17 | 193 | 1.6 | 4.8 | 0.00 | 0.00 | 0.00 | 75 | 1018.9 |
| 20260504043302 | 17 | 197 | 0.0 | 3.2 | 0.00 | 0.00 | 0.00 | 74 | 1018.9 |
| 20260504042230 | 17 | 197 | 0.0 | 4.8 | 0.00 | 0.00 | 0.00 | 73 | 1018.8 |
| 20260504041236 | 17 | 197 | 1.6 | 4.8 | 0.00 | 0.00 | 0.00 | 72 | 1018.9 |
| 20260504040227 | 18 | 205 | 3.2 | 8.0 | 0.00 | 0.00 | 0.00 | 71 | 1019.1 |
| 20260504035235 | 18 | 183 | 3.2 | 6.4 | 0.00 | 0.00 | 0.00 | 70 | 1018.9 |
| 20260504034239 | 18 | 192 | 3.2 | 8.0 | 0.00 | 0.00 | 0.00 | 70 | 1019.0 |
| 20260504033228 | 18 | 184 | 3.2 | 6.4 | 0.00 | 0.00 | 0.00 | 69 | 1018.8 |
| 20260504032240 | 18 | 177 | 3.2 | 8.0 | 0.00 | 0.00 | 0.00 | 68 | 1018.8 |
| 20260504031246 | 18 | 192 | 4.8 | 9.7 | 0.00 | 0.00 | 0.00 | 67 | 1018.9 |
| 20260504030235 | 19 | 166 | 4.8 | 8.0 | 0.00 | 0.00 | 0.00 | 66 | 1018.6 |
| 20260504025242 | 19 | 192 | 4.8 | 8.0 | 0.00 | 0.00 | 0.00 | 65 | 1018.6 |
| 20260504024231 | 20 | 183 | 4.8 | 9.7 | 0.00 | 0.00 | 0.00 | 65 | 1018.6 |
| 20260504023240 | 20 | 165 | 3.2 | 9.7 | 0.00 | 0.00 | 0.00 | 63 | 1018.5 |
| 20260504022227 | 20 | 184 | 6.4 | 9.7 | 0.00 | 0.00 | 0.00 | 61 | 1018.4 |
| 20260504021233 | 21 | 160 | 4.8 | 12.9 | 0.00 | 0.00 | 0.00 | 60 | 1018.2 |
| 20260504015252 | 21 | 169 | 3.2 | 11.3 | 0.00 | 0.00 | 0.00 | 58 | 1018.1 |
| 20260504014237 | 21 | 195 | 3.2 | 9.7 | 0.00 | 0.00 | 0.00 | 57 | 1018.0 |
| 20260504013226 | 22 | 189 | 3.2 | 9.7 | 0.00 | 0.00 | 0.00 | 56 | 1018.0 |
| 20260504012238 | 22 | 174 | 3.2 | 11.3 | 0.00 | 0.00 | 0.00 | 55 | 1017.9 |
| 20260504011304 | 22 | 165 | 3.2 | 9.7 | 0.00 | 0.00 | 0.00 | 54 | 1017.8 |
| 20260504010228 | 22 | 173 | 1.6 | 8.0 | 0.00 | 0.00 | 0.00 | 54 | 1017.9 |
| 20260504005237 | 23 | 160 | 3.2 | 12.9 | 0.00 | 0.00 | 0.00 | 51 | 1017.8 |
| 20260504004223 | 23 | 181 | 6.4 | 11.3 | 0.00 | 0.00 | 0.00 | 50 | 1017.8 |
| 20260504003236 | 24 | 123 | 1.6 | 12.9 | 0.00 | 0.00 | 0.00 | 48 | 1017.9 |
| 20260504002243 | 24 | 165 | 1.6 | 8.0 | 0.00 | 0.00 | 0.00 | 46 | 1017.9 |
| 20260504001249 | 24 | 179 | 1.6 | 6.4 | 0.00 | 0.00 | 0.00 | 44 | 1017.9 |
| 20260504000256 | 25 | 174 | 0.0 | 6.4 | 0.00 | 0.00 | 0.00 | 43 | 1018.0 |
| 20260503235227 | 25 | 179 | 1.6 | 4.8 | 0.00 | 0.00 | 0.00 | 42 | 1017.9 |
| 20260503234232 | 25 | 204 | 1.6 | 8.0 | 0.00 | 0.00 | 0.00 | 41 | 1017.9 |
| 20260503233302 | 25 | 116 | 1.6 | 8.0 | 0.00 | 0.00 | 0.00 | 41 | 1018.0 |
| 20260503232227 | 25 | 194 | 6.4 | 12.9 | 0.00 | 0.00 | 0.00 | 39 | 1018.2 |
| 20260503231237 | 25 | 176 | 4.8 | 9.7 | 0.00 | 0.00 | 0.00 | 39 | 1018.2 |
| 20260503230225 | 26 | 171 | 4.8 | 14.5 | 0.00 | 0.00 | 0.00 | 38 | 1018.5 |
| 20260503225233 | 26 | 170 | 4.8 | 11.3 | 0.00 | 0.00 | 0.00 | 40 | 1018.3 |
| 20260503224239 | 26 | 146 | 6.4 | 12.9 | 0.00 | 0.00 | 0.00 | 36 | 1018.5 |
| 20260503223231 | 26 | 71 | 4.8 | 12.9 | 0.00 | 0.00 | 0.00 | 39 | 1018.6 |
| 20260503222238 | 26 | 150 | 4.8 | 16.1 | 0.00 | 0.00 | 0.00 | 38 | 1018.8 |
| 20260503221225 | 26 | 181 | 6.4 | 16.1 | 0.00 | 0.00 | 0.00 | 37 | 1018.8 |
| 20260503220235 | 26 | 204 | 11.3 | 17.7 | 0.00 | 0.00 | 0.00 | 35 | 1019.1 |
| 20260503215225 | 26 | 178 | 6.4 | 16.1 | 0.00 | 0.00 | 0.00 | 37 | 1019.3 |
| 20260503214228 | 26 | 208 | 4.8 | 12.9 | 0.00 | 0.00 | 0.00 | 37 | 1019.2 |
| 20260503213254 | 27 | 173 | 1.6 | 11.3 | 0.00 | 0.00 | 0.00 | 37 | 1019.4 |
| 20260503212258 | 27 | 167 | 3.2 | 14.5 | 0.00 | 0.00 | 0.00 | 37 | 1019.5 |
| 20260503211239 | 27 | 204 | 4.8 | 14.5 | 0.00 | 0.00 | 0.00 | 37 | 1019.8 |
| 20260503210228 | 27 | 96 | 3.2 | 12.9 | 0.00 | 0.00 | 0.00 | 40 | 1019.7 |
| 20260503205232 | 27 | 175 | 6.4 | 16.1 | 0.00 | 0.00 | 0.00 | 38 | 1020.0 |
| 20260503204233 | 27 | 126 | 1.6 | 12.9 | 0.00 | 0.00 | 0.00 | 39 | 1020.2 |
| 20260503203240 | 27 | 175 | 6.4 | 14.5 | 0.00 | 0.00 | 0.00 | 39 | 1020.3 |
| 20260503202227 | 27 | 169 | 4.8 | 11.3 | 0.00 | 0.00 | 0.00 | 38 | 1020.4 |
| 20260503201249 | 27 | 146 | 8.0 | 17.7 | 0.00 | 0.00 | 0.00 | 38 | 1020.5 |
| 20260503200234 | 27 | 204 | 4.8 | 16.1 | 0.00 | 0.00 | 0.00 | 38 | 1020.7 |
| 20260503195239 | 27 | 162 | 4.8 | 11.3 | 0.00 | 0.00 | 0.00 | 38 | 1020.9 |
| 20260503194226 | 27 | 52 | 1.6 | 6.4 | 0.00 | 0.00 | 0.00 | 43 | 1021.0 |
| 20260503193250 | 27 | 108 | 1.6 | 14.5 | 0.00 | 0.00 | 0.00 | 41 | 1021.2 |
| 20260503192234 | 26 | 156 | 1.6 | 16.1 | 0.00 | 0.00 | 0.00 | 41 | 1021.3 |
| 20260503191238 | 26 | 54 | 1.6 | 12.9 | 0.00 | 0.00 | 0.00 | 44 | 1021.4 |
| 20260503190242 | 26 | 247 | 1.6 | 12.9 | 0.00 | 0.00 | 0.00 | 38 | 1021.6 |
| 20260503185230 | 26 | 175 | 4.8 | 14.5 | 0.00 | 0.00 | 0.00 | 43 | 1021.8 |
| 20260503184233 | 26 | 168 | 3.2 | 16.1 | 0.00 | 0.00 | 0.00 | 40 | 1021.9 |
| 20260503183237 | 26 | 88 | 3.2 | 11.3 | 0.00 | 0.00 | 0.00 | 40 | 1022.1 |
| 20260503182242 | 26 | 182 | 6.4 | 14.5 | 0.00 | 0.00 | 0.00 | 40 | 1022.2 |
| 20260503181229 | 26 | 192 | 1.6 | 9.7 | 0.00 | 0.00 | 0.00 | 42 | 1022.3 |
| 20260503180234 | 26 | 73 | 1.6 | 4.8 | 0.00 | 0.00 | 0.00 | 44 | 1022.4 |
| 20260503175238 | 25 | 192 | 3.2 | 14.5 | 0.00 | 0.00 | 0.00 | 41 | 1022.7 |
| 20260503174241 | 25 | 150 | 6.4 | 14.5 | 0.00 | 0.00 | 0.00 | 42 | 1022.9 |
| 20260503173251 | 25 | 73 | 1.6 | 12.9 | 0.00 | 0.00 | 0.00 | 45 | 1023.0 |
| 20260503172234 | 25 | 133 | 6.4 | 16.1 | 0.00 | 0.00 | 0.00 | 43 | 1023.1 |
| 20260503171236 | 25 | 227 | 6.4 | 14.5 | 0.00 | 0.00 | 0.00 | 43 | 1023.3 |
| 20260503170304 | 25 | 171 | 9.7 | 19.3 | 0.00 | 0.00 | 0.00 | 44 | 1023.4 |